EW9078 Weather Reports


time (UTC)temp
F
wind
direction
speed
knots
gust
knots
rain 1hr
in
rain 24hr
in
rain mn
in
humidity
%
barometer
mb
20260505014504 79 315 7.0 21.7 0.00 0.00 0.00 22 995.5
20260505014004 79 306 7.8 20.9 0.00 0.00 0.00 24 995.6
20260505013504 79 306 10.4 23.5 0.00 0.00 0.00 23 995.6
20260505013004 80 310 9.6 23.5 0.00 0.00 0.00 22 995.6
20260505012504 80 305 7.8 21.7 0.00 0.00 0.00 22 995.6
20260505012005 80 308 8.7 21.7 0.00 0.00 0.00 22 995.6
20260505011505 80 312 9.6 21.7 0.00 0.00 0.00 22 995.5
20260505011005 80 302 9.6 20.9 0.00 0.00 0.00 23 995.6
20260505010505 80 307 8.7 20.9 0.00 0.00 0.00 24 995.4
20260505010005 80 311 7.8 19.1 0.00 0.00 0.00 25 995.3
20260505005504 81 305 8.7 23.5 0.00 0.00 0.00 26 995.5
20260505005004 81 313 8.7 23.5 0.00 0.00 0.00 27 995.6
20260505004505 81 310 7.8 22.6 0.00 0.00 0.00 27 995.6
20260505004004 81 302 5.2 18.2 0.00 0.00 0.00 28 995.4
20260505003504 82 313 4.3 16.5 0.00 0.00 0.00 28 995.4
20260505003004 82 311 4.3 16.5 0.00 0.00 0.00 27 995.1
20260505002504 82 304 5.2 16.5 0.00 0.00 0.00 27 995.4
20260505002004 82 307 7.8 22.6 0.00 0.00 0.00 28 995.4
20260505001504 82 307 8.7 22.6 0.00 0.00 0.00 27 995.5
20260505001004 82 311 7.0 17.4 0.00 0.00 0.00 28 995.3
20260505000504 83 303 6.1 15.6 0.00 0.00 0.00 28 995.3
20260505000004 83 304 7.0 17.4 0.00 0.00 0.00 28 995.3
20260504235504 83 310 7.0 17.4 0.00 0.00 0.00 26 995.6
20260504235004 84 308 5.2 17.4 0.00 0.00 0.00 25 995.5
20260504234504 84 306 4.3 20.0 0.00 0.00 0.00 23 995.6
20260504233505 85 301 4.3 13.0 0.00 0.00 0.00 21 995.4
20260504233005 85 295 4.3 15.6 0.00 0.00 0.00 20 995.3
20260504232505 85 288 5.2 15.6 0.00 0.00 0.00 20 995.4
20260504232005 85 286 4.3 19.1 0.00 0.00 0.00 19 995.4
20260504231504 86 288 4.3 19.1 0.00 0.00 0.00 19 995.5
20260504231004 86 301 4.3 16.5 0.00 0.00 0.00 20 995.6
20260504230504 86 301 5.2 16.5 0.00 0.00 0.00 22 995.6
20260504230005 86 288 4.3 13.9 0.00 0.00 0.00 22 995.6
20260504225504 87 287 3.5 12.2 0.00 0.00 0.00 26 995.6
20260504225004 87 311 5.2 20.0 0.00 0.00 0.00 27 995.6
20260504224504 87 310 6.1 20.0 0.00 0.00 0.00 28 995.6
20260504223504 87 299 7.0 16.5 0.00 0.00 0.00 28 995.7
20260504223004 87 296 6.1 16.5 0.00 0.00 0.00 28 995.6
20260504222504 88 289 4.3 13.9 0.00 0.00 0.00 28 995.6
20260504222004 88 287 3.5 13.9 0.00 0.00 0.00 28 995.6
20260504221504 88 265 3.5 16.5 0.00 0.00 0.00 27 995.6
20260504221005 88 274 5.2 16.5 0.00 0.00 0.00 27 995.6
20260504220505 89 272 5.2 16.5 0.00 0.00 0.00 27 995.6
20260504220004 89 258 2.6 13.0 0.00 0.00 0.00 26 995.7
20260504215004 90 294 3.5 13.0 0.00 0.00 0.00 26 996.0
20260504214504 90 277 3.5 13.0 0.00 0.00 0.00 25 996.1
20260504214004 90 260 2.6 10.4 0.00 0.00 0.00 24 996.1
20260504213504 90 263 3.5 10.4 0.00 0.00 0.00 24 996.0
20260504212505 89 220 5.2 16.5 0.00 0.00 0.00 25 996.1
20260504212004 89 242 3.5 14.8 0.00 0.00 0.00 26 996.1
20260504211505 89 248 4.3 12.2 0.00 0.00 0.00 25 996.2
20260504211004 89 243 4.3 12.2 0.00 0.00 0.00 24 996.3
20260504210504 89 246 4.3 13.9 0.00 0.00 0.00 22 996.5
20260504210004 88 242 5.2 13.9 0.00 0.00 0.00 20 996.6
20260504205505 89 232 3.5 13.9 0.00 0.00 0.00 22 996.6
20260504205004 89 223 4.3 17.4 0.00 0.00 0.00 23 996.7
20260504204004 89 215 4.3 18.2 0.00 0.00 0.00 22 996.6
20260504203505 89 209 2.6 13.9 0.00 0.00 0.00 22 996.6
20260504202504 89 233 5.2 20.9 0.00 0.00 0.00 23 996.8
20260504202004 89 224 1.7 18.2 0.00 0.00 0.00 24 996.9
20260504201504 89 215 3.5 17.4 0.00 0.00 0.00 25 996.8
20260504201004 88 212 5.2 17.4 0.00 0.00 0.00 26 997.2
20260504200504 88 215 3.5 13.9 0.00 0.00 0.00 27 997.2
20260504200004 88 221 5.2 13.9 0.00 0.00 0.00 28 997.2
20260504195504 87 225 6.1 13.9 0.00 0.00 0.00 28 997.2
20260504195004 88 230 3.5 12.2 0.00 0.00 0.00 29 997.2
20260504194504 88 272 1.7 12.2 0.00 0.00 0.00 29 997.2
20260504194004 87 250 2.6 8.7 0.00 0.00 0.00 30 997.4
20260504193504 86 202 3.5 12.2 0.00 0.00 0.00 32 997.2
20260504193004 86 212 3.5 12.2 0.00 0.00 0.00 32 997.3
20260504192505 86 219 2.6 12.2 0.00 0.00 0.00 31 997.7
20260504192004 86 209 3.5 9.6 0.00 0.00 0.00 31 997.6
20260504191004 87 210 5.2 18.2 0.00 0.00 0.00 28 997.8
20260504190504 87 199 4.3 13.9 0.00 0.00 0.00 28 997.8
20260504190004 87 208 3.5 13.9 0.00 0.00 0.00 28 997.8
20260504185504 86 230 3.5 13.0 0.00 0.00 0.00 31 997.8
20260504185004 85 226 3.5 13.0 0.00 0.00 0.00 31 998.2
20260504184504 84 221 5.2 16.5 0.00 0.00 0.00 34 998.2
20260504184004 84 230 5.2 16.5 0.00 0.00 0.00 35 998.2
20260504183003 85 205 2.6 7.8 0.00 0.00 0.00 33 998.3
20260504182505 85 197 3.5 11.3 0.00 0.00 0.00 34 998.3
20260504181004 84 220 4.3 11.3 0.00 0.00 0.00 36 998.6
20260504180004 83 199 3.5 12.2 0.00 0.00 0.00 39 998.7
20260504175504 83 182 2.6 6.1 0.00 0.00 0.00 39 998.7
20260504175004 82 197 2.6 8.7 0.00 0.00 0.00 39 998.7
20260504174004 82 176 3.5 11.3 0.00 0.00 0.00 41 999.1
20260504173004 81 164 3.5 12.2 0.00 0.00 0.00 42 998.9
20260504172504 81 171 2.6 12.2 0.00 0.00 0.00 43 999.1
20260504172004 81 178 2.6 7.8 0.00 0.00 0.00 43 998.7
20260504171504 81 172 1.7 8.7 0.00 0.00 0.00 43 998.8
20260504171004 81 185 1.7 8.7 0.00 0.00 0.00 43 998.8
20260504170504 80 203 1.7 6.1 0.00 0.00 0.00 44 998.8
20260504151004 75 186 0.9 3.5 0.00 0.00 0.00 58 999.1
20260504150504 74 186 0.9 3.5 0.00 0.00 0.00 57 999.0
20260504140504 70 0 0.0 0.0 0.00 0.00 0.00 47 998.6
20260504130503 67 0 0.0 0.0 0.00 0.00 0.00 48 997.5
20260504110504 70 197 0.0 3.5 0.00 0.00 0.00 44 997.1
20260504100504 70 0 0.0 0.0 0.00 0.00 0.00 46 996.7
20260504081505 72 0 0.0 0.0 0.00 0.00 0.00 43 996.9
20260504081005 72 0 0.0 0.0 0.00 0.00 0.00 43 997.1
20260504080505 72 0 0.0 0.0 0.00 0.00 0.00 43 996.9
20260504050505 77 298 1.7 13.0 0.00 0.00 0.00 35 997.6
20260504050005 77 296 1.7 10.4 0.00 0.00 0.00 35 997.6
20260504045505 77 292 0.9 6.1 0.00 0.00 0.00 35 997.7
20260504044505 77 295 0.9 7.8 0.00 0.00 0.00 36 997.4
20260504044005 77 302 0.9 7.8 0.00 0.00 0.00 35 997.3
20260504043505 77 290 0.9 8.7 0.00 0.00 0.00 36 997.5
20260504043007 77 287 0.9 8.7 0.00 0.00 0.00 37 997.6
20260504042506 78 293 0.9 7.8 0.00 0.00 0.00 38 997.7
20260504042005 78 286 0.9 8.7 0.00 0.00 0.00 37 997.4
20260504041505 78 284 0.9 8.7 0.00 0.00 0.00 37 997.2
20260504041005 78 310 2.6 15.6 0.00 0.00 0.00 36 997.2
20260504040005 78 294 2.6 12.2 0.00 0.00 0.00 35 997.2
20260504035505 78 292 2.6 14.8 0.00 0.00 0.00 35 997.2
20260504035006 78 295 2.6 14.8 0.00 0.00 0.00 34 997.1
20260504034506 78 296 2.6 13.9 0.00 0.00 0.00 35 997.1
20260504034006 79 301 4.3 13.9 0.00 0.00 0.00 34 997.1
20260504033506 79 308 2.6 14.8 0.00 0.00 0.00 32 996.8
20260504033006 79 314 1.7 14.8 0.00 0.00 0.00 34 996.7
20260504032505 79 311 1.7 12.2 0.00 0.00 0.00 35 996.6
20260504032005 79 300 2.6 12.2 0.00 0.00 0.00 35 996.5
20260504031006 79 302 2.6 11.3 0.00 0.00 0.00 35 996.3
20260504030506 79 297 4.3 16.5 0.00 0.00 0.00 35 996.2
20260504030006 79 297 4.3 16.5 0.00 0.00 0.00 34 996.1
20260504025505 79 307 4.3 18.2 0.00 0.00 0.00 35 996.1
20260504024505 79 303 4.3 15.6 0.00 0.00 0.00 35 996.0
20260504024005 80 310 4.3 15.6 0.00 0.00 0.00 35 995.8
20260504023505 80 304 5.2 16.5 0.00 0.00 0.00 35 995.7
20260504023005 80 296 4.3 16.5 0.00 0.00 0.00 34 995.6
20260504022505 80 302 3.5 15.6 0.00 0.00 0.00 33 995.5
20260504021506 80 297 4.3 17.4 0.00 0.00 0.00 35 995.6
20260504021006 80 301 3.5 12.2 0.00 0.00 0.00 36 995.6
20260504020005 80 311 3.5 17.4 0.00 0.00 0.00 33 995.5
20260504015505 80 296 3.5 15.6 0.00 0.00 0.00 34 995.4